STARLINK-32640, 62198

Orbit data source: Space-Track

STARLINK-32640, 62198 is a payload satellite owned by SpaceX/Seattle (US) in LEO that was launched on Wed, 04 Dec 2024 UTC via an FALCON 9 launch vehicle from the Air Force Eastern Test Range (AFETR). Payload-class satellites include a variety of spacecraft equipped with specific instruments for various scientific and technological missions. These include communications satellites like Starlink; space stations such as the ISS; scientific satellites like the Hubble; Earth observation satellites from companies like Planet Labs, Umbra, and HawkEye 360; GPS; miniature CubeSats for education and research; and military/defense satellites.

Loading next visibility...
Identifier
62198, 2024-229G
Orbit
LEO
Country
Flag of USUS
Related business
Manufacturer
SpaceX/Seattle
Mission
Operational Commercial Communications
Bus & Motor
STARLINK V2M, Unknown motor
Mass
730 kg wet, ~700 kg dry
Launch date (UTC)
2024-12-04 (2 years ago)
Launch vehicle
FALCON 9
Launch site
Air Force Eastern Test Range (AFETR)
Object type
Payload
Rocket body
Debris
Shape & HBR
Box + 2 Pan, 17.7 m
Radar Cross Section
33.884 m², Large (>1 m²)

Expand to show TLE details & history
Last TLE update: 21 hours ago

TLE from 21 hours ago
0 STARLINK-32640
1 62198U 24229G   26171.08508504  .00016414  00000-0  60425-3 0  9998
2 62198  42.9986  52.2491 0001407 278.1133  81.9559 15.27602053 86222
Epoch: 2026-06-20T02:02Z
TLE epoch observation values (Epoch: 2026-06-20T02:02:31.347Z)
Latitude
-0.00002°
Longitude
113.3137°
Altitude
482.623 km
Speed
7.626 km/s
True Right ascension
03h 28m 59s
True Declination
0° 00' 00"
Sunlit
Object was in daylight at epoch
Visualization orbit readout
Latitude
Unknown
Longitude
Unknown
Altitude
Unknown
Speed
Unknown
Apparent Right ascension
Unknown
Apparent Declination
Unknown
Sunlit
N/A
Visualization observer readout
Local Sidereal Time
10:18:54
Azimuth
Unknown
Elevation
Unknown
Doppler factor
Unknown
Orbital elements
Apogee altitude
485.894 km
Perigee altitude
483.963 km
Semi-major axis
6,863.065 km
Eccentricity
0.00014
Inclination
42.9986°
RAAN
52.2491°
Arg. of periapsis
278.1133°
True anomaly
81.97186°
Mean anomaly
81.9559°
Eccentric anomaly
81.96388°
Mean motion
3.81738 °/min
Orbital period
94.31 mins
BSTAR
0.00060425
Loading maneuver chart data...
Computing Atmospheric mass density...
Loading historical data...
Loading historical data...
Loading historical data...
Loading historical data...
Loading historical data...
Loading historical data...
Loading historical data...

Documentation

Showing up to 5 results
|